This demonstration page uses our WeatherBlox Daily Observations layout. Learn more.

Left ArrowRight Arrow

34.74481, -87.66753

Hourly Observations for December 1, 2017

Temp ( °F °C ) Dew Point ( °F °C ) Humidity (%) Winds ( mph kmh ) Pressure ( in mb ) Visibility ( mi km ) Precip ( " mm )
12:53 am 00:53 Clear 51 10.6 42 5.6 71 71 NNE 6 9 30.17 1022 10 16 0.00 0.00
1:53 am 01:53 Clear 50 10 40 4.4 68 68 NE 7 11 30.16 1022 10 16 0.00 0.00
2:53 am 02:53 Clear 48 8.9 40 4.4 74 74 NNE 6 9 30.16 1022 10 16 0.00 0.00
3:53 am 03:53 Clear 48 8.9 39 3.9 71 71 N 5 7 30.18 1022 10 16 0.00 0.00
4:22 am 04:22 Mostly Cloudy 48 8.9 38 3.3 68 68 N 6 9 30.18 1022 10 16 0.00 0.00
4:40 am 04:40 Mostly Cloudy 48 8.9 38 3.3 68 68 N 7 11 30.21 1023 10 16 0.00 0.00
4:53 am 04:53 Cloudy 48 8.9 38 3.3 68 68 N 7 11 30.19 1022 10 16 0.00 0.00
5:53 am 05:53 Cloudy 48 8.9 40 4.4 74 74 NNE 9 15 30.19 1022 10 16 0.00 0.00
6:53 am 06:53 Cloudy 48 8.9 41 5 77 77 NNE 8 13 30.21 1023 10 16 0.00 0.00
7:53 am 07:53 Cloudy 49 9.4 42 5.6 77 77 ENE 5 7 30.22 1023 10 16 0.00 0.00
8:53 am 08:53 Cloudy 51 10.6 42 5.6 71 71 ENE 5 7 30.22 1024 10 16 0.00 0.00
9:40 am 09:40 Partly Cloudy 54 12.2 44 6.7 69 69 VRB 3 6 30.24 1024 10 16 0.00 0.00
9:53 am 09:53 Sunny 54 12.2 44 6.7 69 69 SE 3 6 30.22 1023 10 16 0.00 0.00
10:53 am 10:53 Sunny 57 13.9 47 8.3 69 69 Calm 30.22 1023 10 16 0.00 0.00
11:53 am 11:53 Sunny 62 16.7 47 8.3 58 58 Calm 30.19 1023 10 16 0.00 0.00
12:53 pm 12:53 Sunny 63 17.2 45 7.2 52 52 VRB 5 7 30.17 1022 10 16 0.00 0.00
1:53 pm 13:53 Sunny 65 18.3 45 7.2 49 49 VRB 5 7 30.14 1021 10 16 0.00 0.00
2:53 pm 14:53 Sunny 65 18.3 43 6.1 45 45 NE 3 6 30.14 1021 10 16 0.00 0.00
3:53 pm 15:53 Sunny 64 17.8 44 6.7 48 48 SW 5 7 30.14 1021 10 16 0.00 0.00
4:53 pm 16:53 Clear 60 15.6 44 6.7 56 56 WSW 3 6 30.15 1021 10 16 0.00 0.00
5:53 pm 17:53 Clear 50 10 42 5.6 74 74 E 6 9 30.16 1022 10 16 0.00 0.00
6:53 pm 18:53 Clear 50 10 43 6.1 77 77 Calm 30.16 1022 10 16 0.00 0.00
7:53 pm 19:53 Clear 50 10 43 6.1 77 77 ENE 5 7 30.16 1022 10 16 0.00 0.00
8:53 pm 20:53 Clear 50 10 42 5.6 74 74 Calm 30.17 1022 10 16 0.00 0.00
9:53 pm 21:53 Clear 50 10 43 6.1 77 77 Calm 30.17 1022 10 16 0.00 0.00
10:53 pm 22:53 Clear 49 9.4 43 6.1 80 80 Calm 30.16 1021 10 16 0.00 0.00
11:53 pm 23:53 Clear 49 9.4 43 6.1 80 80 Calm 30.15 1021 10 16 0.00 0.00

Powered by AerisWeather